I Watch It For The Plot // 10.1 TiB free of 113 TiB

c File Name Size Date
parent folder--
-1445094.json128262025-05-08 06:27:18
-1445094_2040958_NonfinitePerson_2017-09-23-vap-color.png1779062025-05-08 06:27:18
-1445094_2040959_NonfinitePerson_2017-09-23-vap-lines.png861542025-05-08 06:27:18
-1445094_2040960_NonfinitePerson_2017-09-23-vap-sketch-progression.png1350342025-05-08 06:27:18
-1453730.json76762025-05-08 09:43:18
-1453730_2053716_NonfinitePerson_autumn2017-full.png26104782025-05-08 09:43:18
-1453746.json58672025-05-08 09:43:37
-1453746_2053737_NonfinitePerson_autumn2017-process.mp418566832025-05-08 09:43:37
-1464261.json52622025-07-27 05:42:23
-1464261_2069394_NonfinitePerson_comfort-process.mp414145052025-07-27 05:42:23
-1464264.json112622025-07-27 05:42:21
-1464264_2069400_NonfinitePerson_comfort_web_bg_hd.png13740772025-07-27 05:42:21
-1464264_2069408_NonfinitePerson_comfort_web_nobg_hd.png3505892025-07-27 05:42:21
-1478501.json69502025-07-27 00:10:05
-1478501_2091350_NonfinitePerson_winterfox2017.png7252982025-07-27 00:10:05
-1503690.json61672025-07-26 13:44:21
-1503690_2129686_NonfinitePerson_catalyst_web.png16490472025-07-26 13:44:21
-1530222.json113692025-07-26 03:12:05
-1530222_2168436_NonfinitePerson_loveseat_full.png4604782025-07-26 03:12:05
-1530222_3222115_Nonfinite_loveseat_first_attempt_colors.png4998882025-07-26 03:12:05
-1534704.json141442025-07-26 01:30:54
-1534704_2175378_NonfinitePerson_the_spark_bg.png1941112025-07-26 01:30:54
-1534704_2175385_NonfinitePerson_the_spark_nobg.png2023912025-07-26 01:30:54
-1552508.json152412025-07-25 18:16:01
-1552508_2202893_NonfinitePerson_ba_hd_notext_nobg.png2315712025-07-25 18:16:01
-1552508_2202894_NonfinitePerson_ba_hd_text.png3186492025-07-25 18:16:01
-1552508_2202895_NonfinitePerson_ba_hd_notext.png2769422025-07-25 18:16:01
-1561284.json68822025-07-25 14:36:35
-1561284_2216674_NonfinitePerson_raccoon20180310.png9338332025-07-25 14:36:35
-1568442.json93262025-07-25 11:41:29
-1568442_2228014_NonfinitePerson_uncommonperspective_full_v2.png12598192025-07-25 11:41:29
-1571503.json68662025-07-25 10:22:24
-1571503_2232897_NonfinitePerson_stargazing_web.png17912562025-07-25 10:22:24
-1576074.json182292025-07-25 08:19:29
-1576074_2240183_NonfinitePerson_tonguetied_full_necklace.png16996402025-07-25 08:19:29
-1576074_2240184_NonfinitePerson_tonguetied_full_bare.png16393592025-07-25 08:19:29
-1580800.json64012025-07-25 06:28:37
-1580800_2247366_NonfinitePerson_nalaniicon_full.png4902532025-07-25 06:28:37
-1585167.json91102025-07-25 04:43:15
-1585167_2254006_NonfinitePerson_furretcoffeelogo.png2442662025-07-25 04:43:15
-1593815.json194912025-07-25 01:28:04
-1593815_2267771_NonfinitePerson_snakecharmer_web_bg_moist.png5863342025-07-25 01:28:03
-1593815_2267776_NonfinitePerson_snakecharmer_web_bg_dry.png5679122025-07-25 01:28:04
-1593815_2267777_NonfinitePerson_snakecharmer_web_nobg_moist.png4342352025-07-25 01:28:04
-1593815_2267778_NonfinitePerson_snakecharmer_web_nobg_dry.png4163222025-07-25 01:28:04
-1599389.json100722025-07-24 23:19:52
-1599389_2276598_NonfinitePerson_mermay2018-05-02-sketch.png2668192025-07-24 23:19:52
-1599389_2277519_NonfinitePerson_mermay2018-05-03-web.png6314802025-07-24 23:19:52
-1604807.json161972025-07-24 21:05:59
-1604807_2284693_NonfinitePerson_snakeeuphemisms_web_moist.png3648612025-07-24 21:05:59
-1604807_2284694_NonfinitePerson_snakeeuphemisms_web_dry.png3512542025-07-24 21:05:59
-1604807_2284696_NonfinitePerson_snakeeuphemisms_web_moist_nobg.png1673132025-07-24 21:05:59
-1616028.json98392025-07-24 16:25:23
-1616028_2302985_NonfinitePerson_afterglow-full-clothed.png23767182025-07-24 16:25:23
-1626787.json126442025-07-24 12:10:40
-1626787_2320597_NonfinitePerson_fc_web.png19739732025-07-24 12:10:40
-1626787_2320606_NonfinitePerson_fc_web_charonly.png1445282025-07-24 12:10:40
-1631855.json77672025-07-24 09:56:38
-1631855_2328314_NonfinitePerson_humantis_small.png7204292025-07-24 09:56:38
-1641347.json105152025-07-24 06:15:50
-1641347_2342236_NonfinitePerson_showoffs_web.png10922352025-07-24 06:15:50
-1646972.json127392025-07-24 04:04:52
-1646972_2350736_NonfinitePerson_fireworks_ink_full.png9453602025-07-24 04:04:52
-1646972_2350740_NonfinitePerson_fireworks_ink_full_nobg.png5602092025-07-24 04:04:52
-1648652.json182072025-07-24 03:24:45
-1648652_2353329_NonfinitePerson_fireworks_color_full.png22476742025-07-24 03:24:45
-1648652_2353337_NonfinitePerson_fireworks_color_full_nofw.png17078452025-07-24 03:24:46
-1648652_2353339_NonfinitePerson_fireworks_color_full_notext.png21601362025-07-24 03:24:47
-1648652_2353345_NonfinitePerson_fireworks_color_full_nofw_notext.png16199232025-07-24 03:24:47
-1651358.json82602025-07-24 02:21:47
-1651358_2357598_NonfinitePerson_weight_web.png6210932025-07-24 02:21:47
-1652114.json55822025-07-24 02:03:47
-1652114_2463399_Nonfinite_nalanicolors.png695592018-11-23 19:14:52
-1652114_2836171_Nonfinite_nalanicolors.png624142025-07-24 02:03:47
-1657243.json114802018-11-23 20:59:26
-1657243_2366619_Nonfinite_boop_full.png19169642018-11-23 20:59:27
-1666792.json107162025-07-23 19:50:11
-1666792_2380924_Nonfinite_playingrough_half.png63062902025-07-23 19:50:11
-1666799.json88562025-07-23 19:50:01
-1666799_2380931_Nonfinite_playingrough_lastpanel_full.png35650142025-07-23 19:50:01
-1670390.json83082025-07-23 18:21:35
-1670390_2386652_Nonfinite_saucylittlething.png759572025-07-23 18:21:35
-1671692.json75602025-07-23 17:46:43
-1671692_2388592_Nonfinite_sadfox.png1343382025-07-23 17:46:43
-1675516.json99242025-07-23 15:46:08
-1675516_2394171_Nonfinite_sadfox_full.png7596892025-07-23 15:46:08
-1679899.json102432025-07-23 14:01:21
-1679899_2400432_Nonfinite_pastaprimavera.png7044322025-07-23 14:01:21
-1686547.json172152025-07-23 11:11:21
-1686547_2410709_Nonfinite_tongue_full_fluid.png29187772025-07-23 11:11:21
-1686547_2410718_Nonfinite_tongue_full_dry.png29086412025-07-23 11:11:22
-1688704.json143492025-07-23 10:13:36
-1688704_2413911_Nonfinite_conductivity_web_blood.png27784382025-07-23 10:13:35
-1688704_2413918_Nonfinite_conductivity_web_noblood.png27735292025-07-23 10:13:36
-1693692.json67242025-07-23 08:12:42
-1693692_2421371_Nonfinite_adrift_sm.jpg2419952025-07-23 08:12:42
-1699927.json145952025-07-23 05:44:54
-1699927_2430853_Nonfinite_sultry_web.png18312332025-07-23 05:44:54
-1703766.json152052025-07-23 04:15:07
-1703766_2436587_Nonfinite_summer_web.png8724362025-07-23 04:15:07
-1709603.json110802025-07-23 01:59:50
-1709603_2445254_Nonfinite_yawn_modest.png1962742025-07-23 01:59:50
-1709603_2445256_Nonfinite_sticker_yawn_head.png590752025-07-23 01:59:50
-1709603_2445257_Nonfinite_sticker_yawn_full.png657532025-07-23 01:59:50
-1709615.json80972025-07-23 01:59:35
-1709615_2445265_Nonfinite_yawn_tease.png1956902025-07-23 01:59:35
-1718369.json151842025-07-22 22:32:41
-1718369_2458132_Nonfinite_ghostgape_empty.png6652232025-07-22 22:32:41
-1718369_2458147_Nonfinite_ghostgape_dick.png11915942025-07-22 22:32:41
-1718369_2458150_Nonfinite_ghostgape_cum.png12142192025-07-22 22:32:41
-1718369_2458151_Nonfinite_ghostgape_dribble.png7010322025-07-22 22:32:41
-1719942.json145532025-07-22 21:54:12
-1719942_2460527_Nonfinite_vampire.png6068202025-07-22 21:54:12
-1719942_2460528_Nonfinite_vampire_theeasyway.png6122132025-07-22 21:54:12
-1722842.json87122025-07-22 20:44:01
-1722842_2464738_Nonfinite_trickortreat_web.png9490012025-07-22 20:44:01
-1724997.json122422025-07-22 19:52:39
-1724997_2467727_Nonfinite_lewdkin_with_blame.png16919152025-07-22 19:52:38
-1724997_2467735_Nonfinite_lewdkin.png15112512025-07-22 19:52:39
-1728460.json128912025-07-22 18:28:50
-1728460_2472672_Nonfinite_chastity.png8276082025-07-22 18:28:50
-1728460_2472673_Nonfinite_chastity_nostring.png7269992025-07-22 18:28:50
-1728460_2472674_Nonfinite_chastity_nostring_nopierce.png7084402025-07-22 18:28:50
-1733453.json88972025-07-22 16:11:02
-1733453_2480305_Nonfinite_kitten.png1189902025-07-22 16:11:02
-1733542.json992842025-07-22 16:08:52
-1733542_2480422_Nonfinite_2018-10-01.png3192452025-07-22 16:08:38
-1733542_2480423_Nonfinite_2018-10-02.png9583592025-07-22 16:08:39
-1733542_2480424_Nonfinite_2018-10-03.png12690462025-07-22 16:08:40
-1733542_2480426_Nonfinite_2018-10-04.png3019712025-07-22 16:08:45
-1733542_2480428_Nonfinite_2018-10-05.png3050412025-07-22 16:08:46
-1733542_2480429_Nonfinite_2018-10-06.png1906722025-07-22 16:08:46
-1733542_2480430_Nonfinite_2018-10-07.png3813032025-07-22 16:08:46
-1733542_2480431_Nonfinite_2018-10-08.png1839582025-07-22 16:08:46
-1733542_2480432_Nonfinite_2018-10-09.png2057422025-07-22 16:08:47
-1733542_2480436_Nonfinite_2018-10-10.png2392842025-07-22 16:08:47
-1733542_2480437_Nonfinite_2018-10-11.png13245462025-07-22 16:08:47
-1733542_2480439_Nonfinite_2018-10-12.png1954662025-07-22 16:08:47
-1733542_2480441_Nonfinite_2018-10-13.png1634632025-07-22 16:08:48
-1733542_2480442_Nonfinite_2018-10-14.png1337352025-07-22 16:08:48
-1733542_2480443_Nonfinite_2018-10-15.png974162025-07-22 16:08:49
-1733542_2480445_Nonfinite_2018-10-16.png1151832025-07-22 16:08:50
-1733542_2480446_Nonfinite_2018-10-17.png7969892025-07-22 16:08:50
-1733542_2480447_Nonfinite_2018-10-18.png2357082025-07-22 16:08:51
-1733542_2480448_Nonfinite_2018-10-19a.png30898422025-07-22 16:08:52
-1733542_2480454_Nonfinite_2018-10-20.png3706212025-07-22 16:08:52
-1733542_2480457_Nonfinite_2018-10-21.png9267742025-07-22 16:08:53
-1733542_2480458_Nonfinite_2018-10-22.png3981702025-07-22 16:08:53
-1733542_2480460_Nonfinite_2018-10-23.png1557712025-07-22 16:08:54
-1733542_2480462_Nonfinite_2018-10-24.png1354572025-07-22 16:08:54
-1733542_2480463_Nonfinite_2018-10-25.png1445452025-07-22 16:08:55
-1733542_2480464_Nonfinite_2018-10-26.png18957052025-07-22 16:08:57
-1733542_2480468_Nonfinite_2018-10-27.png3209462025-07-22 16:08:57
-1733542_2480469_Nonfinite_2018-10-28.png1464572025-07-22 16:08:57
-1733542_2480470_Nonfinite_2018-10-29.png1599182025-07-22 16:08:58
-1733542_2480471_Nonfinite_2018-10-30.png9460122025-07-22 16:08:58
-1733542_2480472_Nonfinite_2018-10-31.png27108952025-07-22 16:09:00
-1736436.json72632025-07-22 14:57:01
-1736436_2484749_Nonfinite_that_damn_sweatshirt.png3347402025-07-22 14:57:01
-1736660.json146062025-07-22 14:51:44
-1736660_2485064_Nonfinite_maw_9fps_hq.gif10447632025-07-22 14:51:44
-1736660_2485080_Nonfinite_maw-wip-sketch.gif845672025-07-22 14:51:44
-1747590.json95232025-07-22 10:25:06
-1747590_2502155_Nonfinite_ruby_popsicle_web.png11090582025-07-22 10:25:06
-1758717.json209192025-07-22 05:59:54
-1758717_2518974_Nonfinite_the_candle_tall.png11065962025-07-22 05:59:54
-1758717_2518975_Nonfinite_the_candle_short.png11828352025-07-22 05:59:54
-1771079.json70362025-07-22 01:11:04
-1771079_2538785_Nonfinite_arcanine.png5234652025-07-22 01:11:04
-1772665.json123112025-07-22 00:33:38
-1772665_2541101_Nonfinite_snowfall.png112504252025-07-22 00:33:38
-1772665_2542720_Nonfinite_snowfall_scenery.png95933742025-07-22 00:33:38
-1781207.json169502025-07-21 21:07:25
-1781207_2553446_Nonfinite_donny55_harmony_snow_none.png33854342025-07-21 21:07:25
-1781207_2553448_Nonfinite_donny55_harmony_snow_mid.png36357442025-07-21 21:07:25
-1781207_2553458_Nonfinite_donny55_harmony_snow_long.png36983132025-07-21 21:07:25
-1781207_2553462_Nonfinite_donny55_harmony_nobg.png2405772025-07-21 21:07:25
-1791771.json107142025-07-21 16:43:53
-1791771_2568785_Nonfinite_fox_peek.png3982025-07-21 16:43:53
-1791771_2568787_Nonfinite_fox_peek_wip.png501442025-07-21 16:43:54
-1791771_2568816_Nonfinite_fox_peek_16x_bg.png14042025-07-21 16:43:52
-1794674.json65332025-07-21 15:13:54
-1794674_2573572_Nonfinite_furrets.png16550392025-07-21 15:13:54
-1798703.json62502025-07-21 13:35:57
-1798703_2579656_Nonfinite_2019-01-16-lie-choice-dominate.png27140992025-07-21 13:35:57
-1817311.json137562025-07-21 05:48:56
-1817311_2607848_Nonfinite_vixel-endure-introduce-blast-splash.png7744482025-07-21 05:48:56
-1817311_2607849_Nonfinite_vixel-endure-introduce-blast-wet.png7729062025-07-21 05:48:56
-1835655.json93862025-07-20 22:09:21
-1835655_2635956_Nonfinite_2019-03-06-shark-pilot-pioneer.png5740612025-07-20 22:09:21
-1835655_2635958_Nonfinite_2019-03-06-shark-pilot-pioneer-no-cabin.png5598582025-07-20 22:09:21
-1859208.json59982025-07-20 07:29:02
-1859208_2671474_Nonfinite_siwilli_half.png18972402025-07-20 07:29:02
-1886694.json79812025-07-19 15:58:54
-1886694_2712958_Nonfinite_2019-05-08-prospect-amber-prize.gif1174462025-07-19 15:58:54
-1897975.json101372025-07-19 11:36:47
-1897975_2730399_Nonfinite_jennamaw_moist.png45525802025-07-19 11:36:47
-1897975_2730403_Nonfinite_jennamaw_dry.png45315052025-07-19 11:36:51
-1923450.json65042025-07-19 04:06:46
-1923450_2769617_Nonfinite_2019-05-01-multiply-conception-colleague_half.png14566312025-07-19 04:06:46
-1954849.json126252025-07-18 18:54:05
-1954849_2818149_Nonfinite_tory.png2646222025-07-18 18:54:05
-1954849_2818163_Nonfinite_tory_music.png2841742025-07-18 18:54:05
-1995021.json149822025-07-18 06:49:43
-1995021_2879472_Nonfinite_2019-09-11-attach-drunk-blink_dim.png23610842025-07-18 06:49:43
-1995021_2879478_Nonfinite_rough_feral_strapon_design.png2962152025-07-18 06:49:43
-2008057.json132112025-07-18 03:09:09
-2008057_2898514_Nonfinite_2019-10-30-halloween-collab-final.png94201392025-07-18 03:09:09
-2026540.json76892025-07-17 21:59:27
-2026540_2927271_Nonfinite_thecheapseats.png52728022025-07-17 21:59:27
-2122346.json71432025-07-16 18:19:35
-2122346_3073359_Nonfinite_ac-sketches.png19458142025-07-16 18:19:35
-2124443.json93052025-07-16 17:40:51
-2124443_3076691_Nonfinite_summer_web.png27351122025-07-16 17:40:51
-2124443_3077152_Nonfinite_summer_web_colorcorrected.png29353132025-07-16 17:40:51
-2198584.json673572025-07-15 20:42:53
-2198584_3193029_Nonfinite_bellyride.png7012812025-07-15 20:42:45
-2198584_3193052_Nonfinite_pinned.png1375732025-07-15 20:42:46
-2198584_3193053_Nonfinite_christmascookies.png3203312025-07-15 20:42:46
-2198584_3193060_Nonfinite_gofyourself.png1410912025-07-15 20:42:48
-2198584_3193062_Nonfinite_jennaseduce.png1094872025-07-15 20:42:46
-2198584_3193075_Nonfinite_failednewyear2020collab_bluesketchbykinaj_autocolor.png4566752025-07-15 20:42:46
-2198584_3193078_Nonfinite_nonsense.png148812025-07-15 20:42:46
-2198584_3193096_Nonfinite_skirt.png2673392025-07-15 20:42:45
-2198584_3193097_Nonfinite_mawfuck.png2002502025-07-15 20:42:48
-2198584_3193107_Nonfinite_cowgirl.png749952025-07-15 20:42:48
-2198584_3193109_Nonfinite_bolthund.png353532025-07-15 20:42:49
-2198584_3193163_Nonfinite_poses.png2012452025-07-15 20:42:49
-2198584_3193164_Nonfinite_pumpedup.png414752025-07-15 20:42:48
-2198584_3193191_Nonfinite_teamscrewtail.png3513972025-07-15 20:42:49
-2198584_3193192_Nonfinite_vaplickpov.png1472102025-07-15 20:42:49
-2198584_3193193_Nonfinite_trot.png682592025-07-15 20:42:49
-2198584_3193194_Nonfinite_maid.png1521382025-07-15 20:42:50
-2198584_3193195_Nonfinite_buttplug.png2169782025-07-15 20:42:50
-2198584_3193224_Nonfinite_buttportrait.png1575942025-07-15 20:42:51
-2198584_3193225_Nonfinite_cheeseplay.png4170932025-07-15 20:42:51
-2198584_3193226_Nonfinite_strappedin.png2858462025-07-15 20:42:51
-2198584_3193228_Nonfinite_playtime.png3513422025-07-15 20:42:52
-2198584_3193230_Nonfinite_oozing.png2442132025-07-15 20:42:52
-2198584_3193231_Nonfinite_thong.png4107542025-07-15 20:42:53
-2198584_3193232_Nonfinite_seductive.png1007552025-07-15 20:42:53
-2198584_3193235_Nonfinite_theangleisimportant.png1409652025-07-15 20:42:53
-2198584_3193236_Nonfinite_candycanepocket.png1664882025-07-15 20:42:53
-2198584_3193306_Nonfinite_fisting.png3093062025-07-15 20:42:53
-2198648.json661272025-07-15 20:41:46
-2198648_3193117_Nonfinite_campingtrip_swimming.png10423062025-07-15 20:41:43
-2198648_3193120_Nonfinite_campingtrip_hammock.png5707092025-07-15 20:41:43
-2198648_3193122_Nonfinite_campingtrip_fire.png7120392025-07-15 20:41:43
-2198648_3193123_Nonfinite_jennaoffmodel.png960412025-07-15 20:41:44
-2198648_3193125_Nonfinite_snowboard.png12578902025-07-15 20:41:44
-2198648_3193155_Nonfinite_dogsketchsad.png502462025-07-15 20:41:44
-2198648_3193156_Nonfinite_fade.png8544562025-07-15 20:41:44
-2198648_3193157_Nonfinite_tobikadachi.png2165112025-07-15 20:41:44
-2198648_3193158_Nonfinite_flareonsketches.png3371122025-07-15 20:41:44
-2198648_3193159_Nonfinite_flight.png1326382025-07-15 20:41:45
-2198648_3193160_Nonfinite_meadow.png2577882025-07-15 20:41:44
-2198648_3193198_Nonfinite_batdog.png1092442025-07-15 20:41:45
-2198648_3193242_Nonfinite_sneakycats.png27567242025-07-15 20:41:45
-2198648_3193246_Nonfinite_surprise.png1051602025-07-15 20:41:45
-2198648_3193247_Nonfinite_dapperdog.png3267222025-07-15 20:41:45
-2198648_3193249_Nonfinite_floof.png1208092025-07-15 20:41:45
-2198648_3193253_Nonfinite_ihavenoidea.png1890302025-07-15 20:41:46
-2198648_3193254_Nonfinite_interested.png2042972025-07-15 20:41:46
-2198648_3193256_Nonfinite_lake.png5576842025-07-15 20:41:46
-2198648_3193259_Nonfinite_cargi.png1083162025-07-15 20:41:46
-2198648_3193262_Nonfinite_busfalo.png3312902025-07-15 20:41:46
-2198648_3193264_Nonfinite_snowdog.png985172025-07-15 20:41:46
-2198648_3193266_Nonfinite_fox.png1284562025-07-15 20:41:47
-2198648_3193267_Nonfinite_ball.png1694252025-07-15 20:41:47
-2198648_3193268_Nonfinite_old.png1048592025-07-15 20:41:47
-2198648_3193269_Nonfinite_worried.png1996072025-07-15 20:41:47
-2198648_3193270_Nonfinite_pangolinshavetoomanyscales.png1188752025-07-15 20:41:47
-2198648_3193272_Nonfinite_classylady.png4381422025-07-15 20:41:47
-2198648_3193273_Nonfinite_foxagain.png3093822025-07-15 20:41:48
-2198648_3193274_Nonfinite_theiceonewhosbreedicantrememberatm.png1696392025-07-15 20:41:48
-2198648_3193275_Nonfinite_elfpap.png5163112025-07-15 20:41:48
-2199054.json80492025-07-15 20:34:22
-2199054_3193788_Nonfinite_zoey_web.png11940872025-07-15 20:34:22
-2200582.json57422025-07-15 20:02:15
-2200582_3196394_Nonfinite_cloacola.png2325412025-07-15 20:02:15
-2220416.json72772025-07-15 14:23:33
-2220416_3226584_Nonfinite_2020tired.png3746592025-07-15 14:23:33
-2340660.json74632025-07-14 04:30:28
-2340660_3418001_Nonfinite_liftoff.png7931472025-07-14 04:30:28
-2340660_3418003_Nonfinite_liftoff_tl.mp452020462025-07-14 04:30:28
-2389546.json70762025-07-13 16:03:26
-2389546_3497839_Nonfinite_de_tl_edit.mp416417542025-07-13 16:03:26
-2389546_3497850_Nonfinite_despite-everything.png4894102025-07-13 16:03:26
-2420836.json102532025-07-13 08:02:31
-2420836_3547417_Nonfinite_tory-needyjenna.png9256252025-07-13 08:02:30
-2420836_3547418_Nonfinite_tory-needyjenna-nt.png9198932025-07-13 08:02:30
-2420836_3547421_Nonfinite_tory-needyjenna-tl.mp4184491092025-07-13 08:02:31
-2482452.json52742025-07-13 13:55:49
-2482452_3645998_Nonfinite_protect.png11391942025-07-13 13:55:49
-2571015.json86432025-07-12 10:25:50
-2571015_3791108_Nonfinite_jackolabtern_color.png8692542025-07-12 10:25:49
-2571015_3791126_Nonfinite_jackolabtern.png5744992025-07-12 10:25:50

control-panel